Basel, France

11:24 AM CET on January 16, 2018 (GMT +0100)
Basle-Mulhouse

Weather History for LFSB - February, 2014

Change the Weather History Date:

Tuesday, February 11, 2014

  Actual Average Record
Temperature  
Mean Temperature 40 °F -  
Max Temperature 49 °F 46 °F 60 °F (1998)
Min Temperature 32 °F 31 °F 8 °F (2012)
Degree Days  
Heating Degree Days 24    
Moisture  
Dew Point 34 °F    
Average Humidity 73    
Maximum Humidity 93    
Minimum Humidity 38    
Precipitation  
Precipitation 0.02 in - - ()
Sea Level Pressure  
Sea Level Pressure 29.75 in    
Wind  
Wind Speed 8 mph ()    
Max Wind Speed 15 mph    
Max Gust Speed -    
Visibility 9.0 miles    
Events Rain    
Averages and records for this station are not official NWS values.
T = Trace of Precipitation, MM = Missing Value Source: Averaged Metar Reports

Daily Weather History Graph

Daily Weather History Graph

Search for Another Location

Airport or City:

Trip Planner

Search our weather history database for the weather conditions in past years. The results will help you decide how hot, cold, wet, or windy it might be!

Date:

Astronomy

Feb. 11, 2014 Rise Set
Actual Time 7:42 AM CET 5:46 PM CET
Civil Twilight 7:10 AM CET 6:18 PM CET
Nautical Twilight 6:34 AM CET 6:54 PM CET
Astronomical Twilight 5:58 AM CET 7:30 PM CET
Moon 2:46 PM CET (2/11) 5:14 AM CET (2/11)
Length of Visible Light 11h 08m
Length of Day
10h 04m
Waxing Gibbous, 89% of the Moon is Illuminated
Feb 11
Waxing Gibbous
Feb 15
Full
Feb 22
Last Quarter
Mar 1
New
Mar 8
First Quarter

Hourly Weather History & Observations

Time (CET) Temp. Windchill Dew Point Humidity Pressure Visibility Wind Dir Wind Speed Gust Speed Precip Events Conditions
12:00 AM 41 °F - 37 °F 81% 29.65 in 9 mi WSW 13.8 mph - -   Overcast
12:00 AM 41.0 °F 33.5 °F 37.4 °F 87% 29.62 in - WSW 13.8 mph - N/A   Clear
12:30 AM 41.0 °F 33.1 °F 37.4 °F 87% 29.65 in 6.2 mi West 15.0 mph - N/A   Mostly Cloudy
1:00 AM 41 °F - 36 °F 76% 29.69 in 34 mi West 13.8 mph - -   Clear
1:00 AM 41.0 °F 33.5 °F 35.6 °F 81% 29.65 in 6.2 mi West 13.8 mph - N/A   Mostly Cloudy
1:30 AM 41.0 °F 34.3 °F 35.6 °F 81% 29.68 in 6.2 mi West 11.5 mph - N/A   Mostly Cloudy
2:00 AM 41 °F - 36 °F 76% 29.73 in 34 mi WSW 8.1 mph - -   Clear
2:00 AM 41.0 °F 35.8 °F 35.6 °F 81% 29.68 in 6.2 mi WSW 8.1 mph - N/A   Mostly Cloudy
2:30 AM 41.0 °F 34.3 °F 37.4 °F 87% 29.71 in 6.2 mi WSW 11.5 mph - N/A Rain Light Rain
3:00 AM 41 °F - 37 °F 79% 29.76 in 11 mi WSW 6.9 mph - - Rain Light Rain
3:00 AM 41.0 °F 36.4 °F 37.4 °F 87% 29.74 in 6.2 mi WSW 6.9 mph - N/A Rain Light Rain
3:30 AM 41.0 °F 34.3 °F 37.4 °F 87% 29.74 in 4.3 mi WSW 11.5 mph - N/A Rain Light Rain
4:00 AM 41 °F - 37 °F 82% 29.78 in 22 mi WSW 9.2 mph - -   Clear
4:00 AM 41.0 °F 35.2 °F 37.4 °F 87% 29.74 in 6.2 mi WSW 9.2 mph - N/A   Overcast
4:30 AM 41.0 °F 35.2 °F 37.4 °F 87% 29.74 in 6.2 mi WSW 9.2 mph - N/A   Overcast
5:00 AM 41 °F - 36 °F 77% 29.81 in 12 mi WSW 9.2 mph - -   Overcast
5:00 AM 41.0 °F 35.2 °F 35.6 °F 81% 29.77 in 6.2 mi WSW 9.2 mph - N/A   Overcast
5:31 AM 41.0 °F 35.8 °F 35.6 °F 81% 29.80 in 6.2 mi WSW 8.1 mph - N/A   Mostly Cloudy
6:00 AM 41 °F - 36 °F 74% 29.83 in 12 mi WSW 5.8 mph - -   Overcast
6:00 AM 41.0 °F 36.4 °F 35.6 °F 81% 29.80 in 6.2 mi WSW 6.9 mph - N/A   Mostly Cloudy
6:30 AM 41.0 °F 35.8 °F 35.6 °F 81% 29.80 in 6.2 mi West 8.1 mph - N/A   Mostly Cloudy
7:00 AM 38 °F - 34 °F 79% 29.85 in 31 mi WSW 4.6 mph - -   Clear
7:00 AM 39.2 °F 35.9 °F 33.8 °F 81% 29.80 in 6.2 mi WSW 4.6 mph - N/A   Partly Cloudy
7:30 AM 37.4 °F 34.9 °F 33.8 °F 87% 29.83 in 6.2 mi Variable 3.5 mph - N/A   Partly Cloudy
8:00 AM 37 °F - 32 °F 76% 29.87 in 12 mi WSW 3.5 mph - -   Scattered Clouds
8:00 AM 37.4 °F - 32.0 °F 81% 29.83 in 6.2 mi Variable 2.3 mph - N/A   Partly Cloudy
8:30 AM 37.4 °F 31.4 °F 32.0 °F 81% 29.83 in 6.2 mi WSW 8.1 mph - N/A   Partly Cloudy
9:00 AM 41 °F - 34 °F 66% 29.86 in 12 mi SW 9.2 mph - -   Scattered Clouds
9:00 AM 41.0 °F 35.2 °F 33.8 °F 76% 29.83 in 6.2 mi SW 9.2 mph - N/A   Partly Cloudy
9:30 AM 42.8 °F 37.0 °F 33.8 °F 70% 29.83 in 6.2 mi SW 10.4 mph - N/A   Partly Cloudy
10:00 AM 44 °F - 35 °F 60% 29.85 in 19 mi WSW 10.4 mph - -   Partly Cloudy
10:00 AM 42.8 °F 36.6 °F 33.8 °F 70% 29.83 in 6.2 mi WSW 11.5 mph - N/A   Scattered Clouds
10:30 AM 42.8 °F 37.5 °F 33.8 °F 70% 29.80 in 6.2 mi SW 9.2 mph - N/A   Mostly Cloudy
11:00 AM 45 °F - 33 °F 51% 29.84 in 19 mi SW 8.1 mph - -   Mostly Cloudy
11:00 AM 44.6 °F 40.2 °F 33.8 °F 66% 29.80 in 6.2 mi SW 8.1 mph - N/A   Mostly Cloudy
11:30 AM 44.6 °F 39.7 °F 33.8 °F 66% 29.80 in 6.2 mi SW 9.2 mph - N/A   Scattered Clouds
12:00 PM 44 °F - 33 °F 56% 29.81 in 19 mi WSW 10.4 mph - -   Partly Cloudy
12:00 PM 44.6 °F 38.8 °F 33.8 °F 66% 29.77 in 6.2 mi WSW 11.5 mph - N/A   Partly Cloudy
12:30 PM 46.4 °F 42.4 °F 35.6 °F 66% 29.77 in 6.2 mi WSW 8.1 mph - N/A   Mostly Cloudy
1:00 PM 46 °F - 34 °F 51% 29.78 in 19 mi West 9.2 mph - -   Mostly Cloudy
1:00 PM 46.4 °F 41.9 °F 33.8 °F 62% 29.77 in 6.2 mi West 9.2 mph - N/A   Mostly Cloudy
1:30 PM 46.4 °F 42.9 °F 35.6 °F 66% 29.74 in 6.2 mi NW 6.9 mph - N/A   Scattered Clouds
2:00 PM 48 °F - 32 °F 42% 29.74 in 19 mi WSW 6.9 mph - -   Scattered Clouds
2:00 PM 48.2 °F - 33.8 °F 58% 29.71 in 6.2 mi WSW 6.9 mph - N/A   Partly Cloudy
2:30 PM 48.2 °F - 33.8 °F 58% 29.68 in 6.2 mi West 5.8 mph - N/A   Partly Cloudy
3:00 PM 48 °F - 32 °F 41% 29.72 in 19 mi West 4.6 mph - -   Scattered Clouds
3:00 PM 48.2 °F - 32.0 °F 54% 29.68 in 6.2 mi West 4.6 mph - N/A   Partly Cloudy
3:30 PM 48.2 °F - 32.0 °F 54% 29.68 in 6.2 mi Variable 3.5 mph - N/A   Partly Cloudy
4:00 PM 48 °F - 33 °F 45% 29.72 in 19 mi NW 4.6 mph - -   Scattered Clouds
4:00 PM 48.2 °F - 32.0 °F 54% 29.68 in 6.2 mi NW 4.6 mph - N/A   Partly Cloudy
4:30 PM 48.2 °F - 32.0 °F 54% 29.68 in 6.2 mi NNW 3.5 mph - N/A   Partly Cloudy
5:00 PM 48 °F - 31 °F 38% 29.70 in 19 mi SE 1.2 mph - -   Scattered Clouds
5:00 PM 48.2 °F - 30.2 °F 50% 29.68 in 6.2 mi Variable 1.2 mph - N/A   Partly Cloudy
5:30 PM 44.6 °F - 30.2 °F 57% 29.68 in 6.2 mi Variable 2.3 mph - N/A   Partly Cloudy
6:00 PM 41 °F - 33 °F 65% 29.72 in 19 mi NW 3.5 mph - -   Scattered Clouds
6:00 PM 41.0 °F 39.0 °F 33.8 °F 76% 29.68 in 6.2 mi NW 3.5 mph - N/A   Mostly Cloudy
6:30 PM 37.4 °F - 33.8 °F 87% 29.68 in 6.2 mi NW 2.3 mph - N/A   Mostly Cloudy
7:00 PM 37 °F - 32 °F 75% 29.74 in 12 mi North 3.5 mph - -   Clear
7:00 PM 37.4 °F 34.9 °F 32.0 °F 81% 29.68 in - North 3.5 mph - N/A   Clear
7:30 PM 37.4 °F - 32.0 °F 81% 29.68 in - Variable 2.3 mph - N/A   Clear
8:00 PM 36 °F - 32 °F 80% 29.75 in 9 mi SE 3.5 mph - -   Clear
8:00 PM 35.6 °F 32.8 °F 32.0 °F 87% 29.71 in - SE 3.5 mph - N/A   Clear
8:30 PM 35.6 °F 32.8 °F 32.0 °F 87% 29.71 in - SSW 3.5 mph - N/A   Clear
9:00 PM 35 °F - 32 °F 83% 29.76 in 9 mi WSW 1.2 mph - -   Clear
9:00 PM 33.8 °F - 32.0 °F 93% 29.71 in - Calm Calm - N/A   Clear
9:30 PM 33.8 °F 30.8 °F 30.2 °F 87% 29.71 in - SSE 3.5 mph - N/A   Clear
10:00 PM 34 °F - 31 °F 84% 29.77 in 9 mi SSE 5.8 mph - -   Overcast
10:00 PM 33.8 °F 28.6 °F 30.2 °F 87% 29.71 in - SSE 5.8 mph - N/A   Clear
10:30 PM 33.8 °F - 30.2 °F 87% 29.74 in - Calm Calm - N/A   Clear
11:00 PM 33 °F - 30 °F 84% 29.79 in 9 mi South 2.3 mph - -   Overcast
11:00 PM 32.0 °F - 30.2 °F 93% 29.74 in - Variable 2.3 mph - N/A   Clear
11:30 PM 32.0 °F - 30.2 °F 93% 29.74 in 6.2 mi Variable 1.2 mph - N/A   Overcast